GW2918 Weather Reports


time (UTC)temp
C
wind
direction
speed
KPH
gust
KPH
rain 1hr
cm
rain 24hr
cm
rain mn
cm
humidity
%
barometer
mb
20260505082907 15 191 11.3 17.7 0.00 0.00 0.00 69 1008.4
20260505081906 14 173 6.4 9.7 0.00 0.00 0.00 69 1008.4
20260505080905 15 189 9.7 11.3 0.00 0.00 0.00 68 1008.4
20260505075902 15 189 11.3 12.9 0.00 0.00 0.00 67 1008.6
20260505074857 15 169 4.8 14.5 0.00 0.00 0.00 66 1008.1
20260505073857 15 145 6.4 16.1 0.00 0.00 0.00 65 1008.4
20260505072852 15 143 3.2 12.9 0.00 0.00 0.00 66 1008.5
20260505071850 15 178 3.2 12.9 0.00 0.00 0.00 65 1008.4
20260505070850 15 159 6.4 14.5 0.00 0.00 0.00 65 1008.3
20260505065848 14 192 6.4 11.3 0.00 0.00 0.00 65 1008.5
20260505064847 14 176 4.8 11.3 0.00 0.00 0.00 65 1008.3
20260505063843 15 180 6.4 11.3 0.00 0.00 0.00 64 1008.5
20260505062841 15 199 4.8 8.0 0.00 0.00 0.00 64 1008.4
20260505061841 15 146 3.2 14.5 0.00 0.00 0.00 63 1008.6
20260505060841 15 172 4.8 12.9 0.00 0.00 0.00 62 1008.5
20260505055840 15 169 6.4 12.9 0.00 0.00 0.00 62 1008.8
20260505054839 15 188 8.0 12.9 0.00 0.00 0.00 61 1009.0
20260505053835 15 187 8.0 20.9 0.00 0.00 0.00 61 1008.9
20260505052834 15 152 8.0 20.9 0.00 0.00 0.00 61 1008.9
20260505051834 15 168 8.0 16.1 0.00 0.00 0.00 61 1008.7
20260505050829 15 166 6.4 19.3 0.00 0.00 0.00 60 1008.9
20260505040821 15 197 11.3 14.5 0.00 0.00 0.00 60 1008.6
20260505035821 15 154 6.4 19.3 0.00 0.00 0.00 59 1008.5
20260505034820 15 195 8.0 11.3 0.00 0.00 0.00 59 1008.4
20260505033820 15 149 11.3 12.9 0.00 0.00 0.00 58 1008.3
20260505032815 15 178 4.8 16.1 0.00 0.00 0.00 58 1008.3
20260505031813 16 181 4.8 20.9 0.00 0.00 0.00 57 1008.4
20260505030813 16 205 4.8 19.3 0.00 0.00 0.00 56 1008.5
20260505025810 16 176 11.3 17.7 0.00 0.00 0.00 56 1008.3
20260505024806 16 176 11.3 17.7 0.00 0.00 0.00 55 1008.5
20260505023806 16 187 9.7 22.5 0.00 0.00 0.00 55 1008.5
20260505022806 16 198 14.5 19.3 0.00 0.00 0.00 55 1008.8
20260505021806 16 155 3.2 27.4 0.00 0.00 0.00 55 1008.4
20260505020804 16 155 6.4 14.5 0.00 0.00 0.00 56 1008.5
20260505015803 16 180 11.3 17.7 0.00 0.00 0.00 55 1008.4
20260505014803 16 189 9.7 19.3 0.00 0.00 0.00 55 1008.5
20260505013802 16 176 6.4 20.9 0.00 0.00 0.00 55 1008.4
20260505012758 16 188 9.7 24.1 0.00 0.00 0.00 55 1008.5
20260505011757 16 186 9.7 12.9 0.00 0.00 0.00 54 1008.5
20260505010756 16 166 8.0 16.1 0.00 0.00 0.00 53 1008.4
20260505005754 16 152 6.4 17.7 0.00 0.00 0.00 52 1007.9
20260505004754 16 186 9.7 20.9 0.00 0.00 0.00 51 1008.0
20260505003754 17 164 6.4 25.7 0.00 0.00 0.00 50 1007.9
20260505002753 17 192 6.4 29.0 0.00 0.00 0.00 49 1007.8
20260505001748 17 188 9.7 30.6 0.00 0.00 0.00 49 1007.7
20260505000748 17 161 6.4 19.3 0.00 0.00 0.00 49 1007.5
20260504235748 17 191 6.4 25.7 0.00 0.00 0.00 49 1007.5
20260504234748 17 159 8.0 24.1 0.00 0.00 0.00 48 1007.6
20260504233747 17 167 9.7 20.9 0.00 0.00 0.00 48 1007.3
20260504232746 18 200 9.7 24.1 0.00 0.00 0.00 47 1007.4
20260504231745 18 172 8.0 20.9 0.00 0.00 0.00 46 1007.5
20260504230744 18 142 12.9 14.5 0.00 0.00 0.00 46 1007.4
20260504225741 18 163 6.4 24.1 0.00 0.00 0.00 46 1007.4
20260504224740 19 160 4.8 14.5 0.00 0.00 0.00 46 1007.1
20260504223739 19 184 11.3 27.4 0.00 0.00 0.00 44 1007.2
20260504222738 19 191 12.9 17.7 0.00 0.00 0.00 45 1007.0
20260504221738 19 192 9.7 22.5 0.00 0.00 0.00 45 1007.1
20260504220737 20 182 8.0 9.7 0.00 0.00 0.00 45 1007.1
20260504215737 19 157 4.8 22.5 0.00 0.00 0.00 45 1007.3
20260504214735 20 183 6.4 16.1 0.00 0.00 0.00 44 1007.3
20260504213735 20 201 9.7 20.9 0.00 0.00 0.00 43 1007.2
20260504212734 20 173 6.4 22.5 0.00 0.00 0.00 43 1007.3
20260504211734 19 173 6.4 22.5 0.00 0.00 0.00 43 1007.3
20260504210734 19 197 6.4 17.7 0.00 0.00 0.00 44 1007.5
20260504205733 20 162 9.7 11.3 0.00 0.00 0.00 44 1007.4
20260504204729 19 190 12.9 20.9 0.00 0.00 0.00 45 1007.6
20260504203726 18 174 6.4 25.7 0.00 0.00 0.00 46 1007.7
20260504202723 18 215 17.7 24.1 0.00 0.00 0.00 46 1008.1
20260504201723 18 164 4.8 25.7 0.00 0.00 0.00 47 1008.0
20260504200718 18 163 6.4 17.7 0.00 0.00 0.00 47 1008.3
20260504195716 19 214 14.5 19.3 0.00 0.00 0.00 45 1008.4
20260504194715 18 232 9.7 38.6 0.00 0.00 0.00 46 1008.6
20260504193714 18 207 20.9 30.6 0.00 0.00 0.00 44 1008.7
20260504192710 18 187 3.2 25.7 0.00 0.00 0.00 46 1008.6
20260504191706 20 205 6.4 20.9 0.00 0.00 0.00 43 1008.8
20260504190703 18 204 12.9 20.9 0.00 0.00 0.00 47 1009.0
20260504185702 18 206 17.7 22.5 0.00 0.00 0.00 47 1009.0
20260504184701 18 139 20.9 29.0 0.00 0.00 0.00 48 1008.9
20260504183659 18 208 4.8 25.7 0.00 0.00 0.00 47 1009.0
20260504182654 18 187 4.8 20.9 0.00 0.00 0.00 47 1009.1
20260504181649 18 233 16.1 29.0 0.00 0.00 0.00 44 1009.2
20260504180645 20 175 9.7 11.3 0.00 0.00 0.00 43 1009.4
20260504175640 17 206 20.9 25.7 0.00 0.00 0.00 46 1009.3
20260504174635 17 152 14.5 24.1 0.00 0.00 0.00 46 1009.4
20260504173634 18 198 8.0 27.4 0.00 0.00 0.00 51 1009.7
20260504172634 17 203 11.3 19.3 0.00 0.00 0.00 45 1009.8
20260504171633 17 305 9.7 20.9 0.00 0.00 0.00 48 1009.6
20260504170632 17 195 4.8 25.7 0.00 0.00 0.00 52 1009.9
20260504150612 14 199 14.5 30.6 0.00 0.00 0.00 50 1011.1
20260504140603 12 230 16.1 27.4 0.00 0.00 0.00 51 1011.3
20260504130550 11 184 16.1 19.3 0.00 0.00 0.00 52 1011.7
20260504110531 7 192 8.0 19.3 0.00 0.00 0.00 59 1011.8
20260504100516 6 202 3.2 6.4 0.00 0.00 0.00 62 1011.8